Theta_e
333 332 332 330 330 326 323 320 321 321 320 318 317 314 312 311 311 310 309 307 306 305 303 302 302 302 302 302 303 303 304 305 306 307 308 310 312 308 310 316 318 319 321 324 326 326 328 328 327 326 326 324 322 322 322 321 320 319 318 318 319 318 316 315 315 315 315 315 315 315 315 315 314 314 315 315 315 315 315 316 315 315 317 315 316
334 334 332 330 329 327 324 322 321 321 319 318 316 313 311 310 310 309 308 306 304 303 302 302 301 301 300 300 300 301 302 302 303 304 306 307 308 308 305 310 316 317 318 319 321 323 323 323 324 325 326 325 323 321 320 319 319 318 318 317 317 317 316 315 315 314 314 314 314 314 314 314 314 313 314 313 314 314 314 315 315 314 314 314 315
333 334 333 330 328 325 325 323 320 319 319 318 316 313 311 309 309 307 306 304 302 302 301 300 300 299 299 299 299 299 299 300 301 302 302 304 305 306 306 305 309 314 316 317 319 320 322 321 321 322 322 323 323 321 320 319 318 317 316 316 317 316 316 315 313 313 313 312 312 312 312 312 312 312 312 312 313 313 314 314 314 314 314 314 314
335 333 332 329 327 326 326 324 321 320 319 317 314 313 312 309 308 307 306 304 302 301 300 299 298 298 299 298 298 298 298 298 298 299 299 300 301 302 304 305 304 307 312 315 316 318 319 319 319 319 319 320 320 320 319 318 317 316 315 316 316 315 315 314 313 311 312 311 311 311 311 311 311 311 311 311 311 311 312 312 312 312 313 313 314
336 333 333 332 328 326 325 325 323 321 319 317 315 313 310 308 306 305 303 303 302 300 300 299 298 297 298 297 297 297 298 298 298 298 298 298 298 298 299 301 303 303 304 308 312 314 315 316 317 316 316 316 316 318 317 317 317 316 316 315 314 314 314 313 311 310 311 312 312 312 311 311 310 310 310 310 311 310 310 311 311 311 311 312 312
336 334 333 331 329 327 326 324 324 322 319 316 312 310 308 306 304 302 301 300 299 299 297 297 296 297 297 297 297 297 297 297 297 297 297 298 298 298 297 298 298 301 303 302 305 309 311 313 314 314 315 315 315 315 315 315 316 315 314 314 312 312 312 312 312 312 311 311 312 311 310 310 310 310 310 310 309 309 309 309 310 310 310 311 311
334 332 331 331 329 327 326 324 323 320 317 315 311 309 308 305 303 300 299 299 299 298 298 296 296 296 296 296 296 296 296 296 297 297 297 297 297 298 298 297 297 298 299 299 300 303 307 309 310 311 312 312 314 314 313 313 314 312 312 313 312 311 311 310 311 311 311 310 310 309 310 310 310 309 309 308 308 308 308 308 308 309 309 309 309
332 331 329 326 326 326 325 323 320 318 316 316 311 308 306 305 303 300 297 296 297 297 298 297 296 296 297 296 296 296 295 296 296 296 296 297 297 297 297 297 297 296 297 296 296 298 301 304 306 308 309 310 311 312 313 313 313 312 311 311 312 311 310 309 309 309 310 309 309 308 308 308 308 308 307 307 306 306 306 307 307 308 308 309 309
332 331 328 324 321 320 322 321 319 317 316 313 310 309 305 304 302 299 298 296 297 297 297 296 295 295 296 296 296 296 295 295 295 295 297 296 296 295 296 296 296 297 296 296 296 294 295 298 301 304 305 307 308 309 310 312 312 311 310 310 310 310 309 307 307 308 308 307 307 307 306 306 306 305 306 306 306 306 306 306 307 308 308 308 307
329 328 328 324 320 318 318 319 318 316 314 311 310 308 306 303 300 299 297 296 296 296 295 295 295 295 294 295 295 294 294 294 295 295 295 294 295 295 295 295 296 296 295 296 296 295 295 294 295 297 300 303 306 308 308 309 311 311 311 309 309 309 309 308 307 307 307 306 306 306 305 305 305 305 305 305 305 306 306 307 307 308 308 308 308
324 325 325 322 320 318 317 318 317 316 314 311 309 307 305 303 299 297 297 297 296 296 295 295 295 294 293 292 293 293 293 294 294 294 294 294 293 294 295 294 295 295 295 295 294 294 294 294 294 293 295 299 303 306 307 306 306 309 310 309 309 308 307 307 306 306 306 305 305 305 305 305 305 305 305 305 305 305 306 306 307 308 308 308 308
324 323 322 321 320 318 317 316 315 314 312 309 306 305 303 300 297 296 296 297 297 296 295 294 293 293 292 292 292 292 292 293 293 293 293 293 293 293 293 294 294 294 294 294 294 294 293 293 293 292 293 294 297 300 302 303 304 305 307 309 308 307 306 306 305 305 305 304 305 304 305 304 305 305 305 306 306 306 306 306 307 307 307 306 306
322 320 318 315 317 317 316 315 315 313 311 309 307 306 303 299 297 297 295 294 294 296 296 294 291 290 291 291 290 291 292 291 290 291 291 292 292 292 293 293 293 293 293 293 293 293 292 292 292 292 293 293 294 296 297 298 300 303 304 305 307 307 307 306 306 304 304 305 304 304 304 304 304 305 305 306 307 306 306 306 307 306 306 306 306
320 321 317 315 313 313 314 314 313 312 311 310 308 304 301 298 296 294 296 293 293 296 295 294 292 290 288 288 289 290 290 289 289 289 291 291 292 292 292 292 292 292 293 292 292 292 291 291 291 291 292 292 294 294 295 295 297 299 301 302 304 306 306 306 306 304 304 305 304 304 304 304 305 305 306 306 306 306 306 306 306 306 306 306 306
318 317 315 315 313 312 311 312 313 312 310 307 304 301 298 296 296 295 294 294 294 296 296 299 294 293 293 290 287 287 288 287 288 288 289 290 291 291 292 292 292 292 292 292 291 291 291 291 291 291 291 291 292 293 293 294 294 295 297 299 301 303 305 306 305 304 304 304 304 304 304 305 305 305 305 306 306 305 305 304 305 305 305 305 305
314 314 314 313 312 312 311 312 313 312 309 305 302 300 298 296 296 296 295 293 294 295 299 299 297 293 291 293 290 291 286 286 286 287 288 290 290 290 291 291 291 292 292 291 290 290 290 290 290 290 290 290 291 292 293 294 294 294 294 295 297 300 302 304 305 305 303 304 304 304 304 304 304 304 305 305 305 304 304 304 304 305 305 305 305
310 311 311 311 311 310 310 310 309 309 309 306 303 299 297 296 297 296 295 295 294 295 296 298 299 301 297 291 290 290 292 290 286 285 287 287 289 289 290 290 290 291 290 290 290 290 289 289 289 289 289 290 291 291 292 294 294 294 294 294 295 297 300 302 303 303 303 303 303 304 303 303 303 303 304 304 303 303 304 304 304 304 304 304 304
309 310 309 309 310 310 310 309 309 309 309 306 303 300 298 298 298 298 297 299 297 295 295 296 299 298 299 298 299 296 294 288 288 284 287 290 288 289 289 290 290 290 290 290 290 289 289 289 289 288 289 289 290 291 290 291 292 292 293 295 295 296 297 299 301 302 302 302 302 302 303 303 303 303 302 302 302 303 303 304 303 303 303 303 303
306 308 307 306 307 308 309 309 309 308 308 306 302 300 299 300 300 300 300 300 300 296 296 295 294 295 297 297 296 294 296 289 288 288 283 286 287 286 287 289 289 289 289 289 289 289 288 288 288 288 288 289 290 290 291 290 290 290 291 293 295 294 295 296 298 298 300 300 301 301 302 301 301 301 301 301 302 302 302 302 303 303 303 303 303
304 303 303 305 305 304 306 306 305 307 307 305 303 301 301 302 301 302 303 302 301 300 298 295 293 295 294 294 293 295 297 295 295 291 289 285 284 287 287 288 288 288 289 288 288 289 288 288 288 288 287 288 289 290 291 290 290 289 289 292 294 294 294 295 296 295 296 297 298 299 300 300 300 300 301 300 300 301 301 302 302 302 302 302 302
301 301 300 301 300 301 302 303 302 303 304 306 305 302 300 300 300 302 303 302 302 303 299 296 297 296 293 293 294 293 293 294 295 294 290 288 286 284 284 286 287 287 287 288 289 289 289 288 288 288 287 287 288 289 290 290 289 288 287 289 291 293 294 295 296 295 294 294 295 296 298 298 299 299 300 300 300 300 301 302 301 302 302 302 302
298 298 299 297 297 299 299 299 301 302 301 304 303 301 300 300 301 303 303 302 303 303 300 298 299 297 296 295 292 291 291 290 290 290 290 292 288 285 285 283 282 285 287 287 287 288 288 288 287 287 287 287 287 287 289 290 289 287 286 287 289 291 292 294 294 294 294 293 293 293 294 295 296 298 299 300 300 300 300 301 301 301 301 301 302
296 296 296 294 294 295 296 297 299 299 300 302 301 301 301 300 301 303 303 303 302 302 300 300 299 296 296 294 293 292 291 290 289 290 289 287 288 287 287 285 285 284 286 288 287 288 288 287 287 287 287 287 287 287 288 289 287 285 284 284 287 289 290 291 293 293 293 293 293 293 293 293 293 295 297 299 300 300 300 301 301 300 301 301 301
295 294 292 291 292 292 293 295 296 297 299 300 301 302 302 302 301 302 302 303 302 300 300 298 297 296 295 295 294 294 294 293 293 292 291 290 289 288 286 287 286 287 288 287 288 287 287 287 287 287 287 286 286 286 286 288 287 283 284 283 285 287 289 290 293 293 293 292 292 292 293 293 293 293 295 296 298 299 299 299 300 301 301 301 300
295 294 292 291 290 290 291 293 295 296 299 300 301 302 302 301 301 301 301 300 299 299 297 297 295 294 293 293 294 294 293 293 294 293 293 292 290 287 287 287 284 285 286 286 285 286 287 286 286 286 286 286 286 286 286 287 288 284 282 284 283 285 286 288 290 292 292 291 291 292 291 291 292 293 294 295 295 296 297 298 299 300 300 300 300
295 295 293 290 290 290 291 292 294 295 297 300 300 300 300 300 300 299 299 298 297 297 297 296 295 295 294 292 292 292 292 292 292 292 291 290 288 287 286 285 286 286 286 285 286 284 285 286 287 286 286 286 285 285 285 285 287 283 281 283 284 283 284 286 289 290 291 290 291 291 291 290 290 292 293 294 294 294 294 296 297 298 298 299 299
296 296 294 290 289 290 290 291 293 294 296 298 299 298 299 298 298 298 297 296 296 296 295 294 294 293 293 292 292 292 291 291 291 291 291 290 289 288 286 283 282 283 282 285 285 284 285 286 286 285 285 285 285 285 285 285 285 282 281 284 285 283 283 285 288 290 290 289 290 290 290 290 290 291 292 292 293 293 293 294 294 294 296 296 296
297 295 292 290 289 289 289 290 291 293 295 296 295 296 296 296 295 295 294 294 294 294 293 293 293 293 293 292 291 290 290 290 291 290 290 290 289 289 288 286 284 282 283 282 284 284 286 285 286 285 285 285 285 285 284 282 285 282 282 284 284 284 283 284 287 289 289 288 289 289 289 289 289 290 290 290 291 291 291 292 292 293 292 293 293
296 294 291 290 289 288 288 289 289 291 293 293 293 294 294 294 294 293 292 291 292 292 291 291 292 291 291 291 290 289 288 289 288 289 288 288 289 288 287 286 286 283 282 282 283 283 286 285 284 285 285 285 285 285 283 284 284 282 284 284 283 283 283 284 286 287 287 288 288 288 288 288 289 289 289 290 290 290 290 290 290 290 290 291 291
296 293 291 289 288 287 288 287 289 290 292 292 292 292 293 293 293 292 291 291 291 290 290 290 289 290 290 290 289 288 288 288 288 288 288 287 287 287 286 286 286 284 284 282 283 285 284 285 285 285 285 284 285 284 285 284 283 281 283 283 283 283 282 283 284 285 286 287 287 286 287 288 288 289 289 289 289 289 290 289 289 289 290 290 291
292 290 289 288 287 287 287 287 288 289 290 290 291 291 291 291 291 290 289 290 289 289 289 288 288 288 287 287 288 287 287 288 287 287 287 287 287 287 286 286 286 286 284 284 281 284 285 284 285 286 285 285 284 284 284 284 283 282 282 283 283 282 281 282 282 284 285 285 285 286 287 287 288 288 288 288 288 288 288 288 288 288 289 289 290
291 289 288 288 287 286 286 286 287 288 289 289 289 289 290 290 288 288 288 288 288 287 286 287 287 288 286 286 286 286 286 286 285 285 285 286 286 286 286 286 285 285 285 283 282 282 286 284 285 285 285 284 285 283 284 284 283 280 282 282 283 281 282 282 282 283 284 284 284 285 286 286 287 288 288 287 287 287 287 287 287 288 288 288 289
289 288 288 287 287 286 286 286 286 287 287 287 287 288 288 287 287 287 286 287 287 287 286 285 286 286 286 285 285 285 285 285 284 285 285 284 284 285 285 285 284 284 283 282 281 281 284 285 284 284 285 284 282 284 283 283 283 283 282 283 283 282 282 282 282 282 283 283 284 284 285 286 287 287 287 286 286 286 286 286 286 286 287 288 288
287 288 288 288 287 287 286 285 286 286 287 287 286 287 287 286 286 287 286 286 286 286 285 284 284 285 285 285 284 284 284 283 283 283 283 282 282 283 283 283 284 284 284 282 281 281 281 284 283 284 283 283 281 284 282 282 282 283 282 282 282 282 282 282 282 282 282 283 283 284 285 286 286 287 286 285 285 285 285 286 285 286 287 287 286
287 287 287 286 286 286 285 285 286 286 286 286 286 286 286 286 285 285 286 286 286 285 284 284 284 285 284 284 283 282 283 282 281 281 281 281 282 282 282 283 282 283 283 283 281 280 281 281 283 282 282 282 281 281 282 282 282 281 281 281 281 282 282 281 281 282 282 283 284 284 285 285 285 285 285 285 284 284 284 285 285 285 285 286 286
285 286 285 286 285 285 284 285 285 286 285 285 285 286 286 286 285 285 285 286 285 285 284 284 284 284 284 282 281 281 282 281 280 280 281 281 281 282 282 282 282 282 282 282 282 281 280 279 281 281 282 281 281 282 282 281 281 281 281 281 282 281 281 281 281 281 282 283 284 284 284 285 285 285 285 284 284 283 284 284 284 284 284 284 284
285 285 285 285 284 284 285 285 285 285 284 284 285 285 285 286 285 285 285 284 284 284 284 284 284 283 283 282 281 281 281 280 280 280 280 280 281 281 281 281 281 281 281 281 281 281 280 279 280 282 282 281 281 281 281 280 280 281 281 280 280 280 280 281 281 281 282 283 283 283 283 283 283 284 284 283 283 283 283 283 283 283 283 283 283
284 285 285 284 283 283 284 285 285 284 284 284 284 284 285 285 285 284 283 283 284 284 284 283 282 282 281 282 281 280 280 280 280 280 280 280 280 280 280 281 281 281 281 281 281 280 280 280 280 279 281 280 280 280 281 280 279 279 280 281 281 280 279 279 280 281 281 281 281 281 281 282 282 282 283 282 282 282 282 282 282 282 282 282 281
284 284 284 283 283 284 284 284 284 284 283 283 284 284 284 284 283 283 283 284 284 283 283 282 281 281 281 281 280 280 280 280 280 280 280 280 280 280 281 281 281 281 280 280 280 280 279 279 279 280 279 280 280 278 281 281 280 279 278 278 278 281 280 279 279 281 281 281 282 282 282 281 281 281 281 282 282 282 282 281 281 281 281 281 281
283 283 283 283 283 283 284 284 284 284 283 284 284 284 283 283 283 283 283 283 282 282 281 281 281 281 281 280 279 279 280 280 281 281 281 281 281 280 281 281 281 280 280 280 280 279 279 279 279 279 279 279 279 280 280 279 278 278 279 278 277 279 280 281 280 279 281 281 281 281 282 281 281 281 281 281 280 280 280 280 280 279 279 280 280
284 283 283 282 282 282 283 283 283 283 283 282 282 282 282 283 283 283 283 283 282 282 281 281 280 279 279 278 279 279 280 281 282 283 282 283 282 281 281 280 280 280 280 280 280 280 279 279 279 279 279 278 279 279 279 278 278 278 281 280 278 279 279 279 280 281 281 280 280 281 280 280 278 278 279 278 279 278 278 278 278 279 279 280 281
283 283 282 282 282 282 282 282 282 281 281 282 283 284 284 283 283 283 283 283 282 282 280 278 278 278 278 278 279 281 281 281 281 282 282 282 283 283 282 281 280 280 280 279 279 280 279 278 279 279 278 278 279 279 279 279 281 281 279 279 277 279 279 278 279 281 282 281 279 278 279 280 278 278 278 277 278 278 277 277 277 278 278 280 281
282 282 282 282 282 282 282 281 281 281 281 282 284 286 286 285 283 283 283 282 281 280 279 278 277 277 278 278 278 280 280 280 280 281 282 283 283 282 283 283 283 281 280 279 278 279 278 278 279 279 278 278 279 280 280 280 280 280 279 279 279 278 277 276 275 280 283 279 277 276 277 280 279 276 277 277 277 277 277 277 277 278 278 280 280
282 282 282 282 282 282 282 282 282 282 282 283 285 286 286 286 285 284 283 282 281 280 280 279 278 277 277 277 278 278 279 280 279 280 281 282 283 283 283 283 282 282 282 281 279 278 278 277 277 278 278 278 278 279 280 280 280 280 280 279 278 277 277 276 277 276 280 280 277 276 276 279 279 277 275 276 277 277 277 277 277 278 279 280 280
283 281 281 282 282 282 282 281 282 282 281 284 285 286 287 286 285 283 283 283 282 281 279 278 278 278 278 278 278 278 278 280 280 280 280 281 282 283 283 283 283 283 283 283 282 281 280 278 277 277 278 278 278 279 281 281 281 279 279 278 278 278 278 277 277 278 280 280 276 276 275 277 278 276 275 276 277 276 276 277 277 278 278 279 280
282 281 282 282 282 282 282 281 281 281 281 284 286 287 287 286 285 284 284 283 282 281 279 279 278 278 278 279 278 278 278 278 279 279 279 280 281 281 282 283 283 283 283 283 283 282 281 279 278 277 278 279 278 280 282 282 280 279 278 278 279 278 278 277 279 278 279 279 275 275 272 275 277 275 274 275 277 276 276 276 277 277 278 278 279
281 281 282 282 282 282 282 282 281 281 280 285 287 287 287 286 286 284 283 282 282 280 279 278 279 279 279 279 279 279 279 278 279 279 279 280 280 280 280 281 282 283 283 283 283 282 282 281 280 279 280 281 281 282 282 283 281 280 280 279 279 278 278 279 278 278 278 279 276 274 270 274 277 275 274 275 276 275 275 276 277 277 277 278 278
282 282 282 283 282 282 282 282 281 281 281 285 287 287 287 287 286 283 282 281 281 280 280 279 279 279 279 279 279 279 279 280 281 282 281 280 280 279 278 278 279 279 280 283 284 285 284 283 283 283 283 282 283 282 283 282 281 280 280 279 279 277 275 274 273 275 275 278 277 273 271 272 275 273 273 275 274 273 274 275 276 276 277 277 277
282 282 282 282 282 282 282 282 281 280 281 285 287 287 287 287 286 283 282 281 281 280 280 280 280 279 279 279 278 278 279 279 281 282 283 282 280 278 277 277 277 277 277 279 280 282 283 284 285 286 286 286 286 286 286 286 284 283 279 276 275 276 273 272 272 274 274 276 275 274 272 270 273 273 271 273 273 273 273 273 274 275 275 276 275
281 281 281 282 282 282 282 282 281 280 280 284 287 287 287 288 286 284 284 283 282 282 281 281 281 280 280 281 280 279 279 279 281 281 282 282 280 279 278 277 276 276 277 278 278 278 280 281 282 283 283 283 284 284 284 285 284 284 281 276 276 276 273 272 271 272 274 276 273 274 270 270 272 272 271 272 272 272 273 273 273 273 274 274 274
281 282 281 281 281 281 281 281 282 280 280 283 287 287 288 288 286 285 285 284 284 283 283 282 282 282 281 281 281 281 280 280 281 281 282 281 280 280 280 278 277 276 278 279 278 278 278 277 277 278 278 279 280 280 280 281 281 281 280 279 279 276 273 272 272 272 271 272 276 275 270 270 271 272 271 268 267 271 273 272 272 272 272 272 272
Wind_Speed
9 9 9 9 7 6 6 6 7 7 7 6 7 7 6 6 6 7 6 7 7 7 7 7 6 6 7 7 7 7 7 7 7 7 7 7 8 13 20 20 19 21 19 17 20 21 20 21 21 20 23 21 20 21 21 21 21 21 21 21 22 22 21 21 22 22 22 22 22 23 23 23 23 24 24 24 24 24 24 25 24 23 25 24 24
8 8 11 10 8 7 6 7 7 7 6 7 7 7 7 6 6 6 6 7 7 6 6 7 6 6 7 7 7 7 6 6 6 6 6 7 8 10 19 20 19 20 19 17 17 18 19 20 20 22 23 22 21 21 20 20 20 21 21 21 21 20 21 21 21 21 21 21 21 22 22 22 22 23 23 23 24 24 24 24 25 24 25 25 25
9 9 7 9 8 7 6 7 7 8 7 7 6 7 7 6 6 7 6 7 7 6 6 7 6 7 7 7 7 7 7 6 6 6 7 6 7 7 11 18 19 19 18 19 19 18 19 20 20 19 19 20 20 20 19 19 19 20 20 20 20 20 20 20 20 20 20 21 21 21 21 21 21 22 23 23 23 24 24 24 25 25 24 25 25
10 7 9 10 8 8 6 6 7 8 8 7 7 7 7 7 7 6 6 7 8 6 6 7 6 6 6 7 7 7 7 6 7 7 6 6 6 6 7 9 16 18 19 18 19 20 21 20 20 19 18 18 18 18 18 18 18 18 19 18 18 19 18 18 19 19 19 20 20 20 21 21 21 22 22 23 23 23 23 24 24 24 25 25 25
9 12 9 8 9 9 9 6 6 9 8 10 10 8 7 8 7 5 6 7 8 7 6 6 7 6 6 7 7 7 6 6 6 6 6 5 5 5 5 5 7 13 18 20 20 20 20 20 19 18 17 16 16 17 17 17 17 17 17 17 17 17 17 17 19 19 19 18 19 19 19 20 20 21 22 22 22 23 23 24 24 23 24 25 25
10 9 10 11 10 9 9 6 5 5 8 8 8 7 7 8 9 7 6 7 8 7 7 7 6 6 6 6 7 6 6 6 5 5 5 5 5 5 5 5 5 6 8 16 20 19 19 19 19 19 18 17 16 15 16 16 16 15 16 16 16 16 17 17 17 17 17 18 18 18 19 19 20 21 20 21 21 21 22 22 23 23 24 24 25
9 8 7 8 10 8 9 9 8 7 7 6 7 6 7 8 8 9 6 6 7 6 6 7 8 7 7 6 7 6 6 6 5 5 5 5 5 6 5 5 5 5 5 6 12 17 18 19 19 19 18 18 17 16 15 14 13 14 14 16 16 16 16 16 16 17 17 17 17 18 19 19 19 20 20 20 21 21 21 22 22 23 23 24 24
9 9 10 6 6 10 11 12 11 9 8 5 7 8 7 6 6 8 8 7 8 7 6 7 7 7 6 6 6 5 5 5 5 5 4 5 6 6 6 6 5 5 5 6 7 11 17 17 18 19 19 18 17 16 15 13 12 13 14 14 15 16 16 16 16 17 17 17 18 18 18 19 19 19 20 20 21 21 22 22 22 23 23 24 24
10 9 9 8 4 4 7 13 11 10 9 7 7 7 8 7 7 6 6 8 8 9 7 7 8 7 6 6 5 5 5 5 5 5 4 6 6 6 6 5 4 4 5 5 6 7 12 16 17 18 18 17 16 16 16 14 13 13 13 14 15 15 16 16 16 16 16 16 17 17 18 18 19 19 20 20 21 22 22 23 23 23 24 24 24
8 9 8 7 6 6 5 9 10 10 10 10 8 8 7 7 8 5 5 7 8 9 9 8 8 7 6 6 5 5 5 4 4 4 5 6 5 5 4 4 4 5 5 5 6 5 5 8 11 14 16 15 16 16 16 16 16 14 14 14 14 14 15 15 15 15 15 16 16 17 17 18 18 18 19 20 20 21 21 22 22 23 23 24 24
8 8 7 9 8 8 9 8 8 9 8 9 9 9 8 7 7 7 5 5 8 8 9 9 8 7 7 7 6 5 4 3 3 4 5 5 5 4 3 4 4 4 5 5 5 5 5 5 5 6 8 15 15 17 18 18 17 17 16 14 13 13 14 14 14 14 14 15 15 16 17 17 17 18 18 19 20 20 21 21 22 22 23 23 24
9 9 8 10 11 11 12 10 8 9 9 10 9 10 12 9 7 9 8 6 6 7 9 11 10 9 8 7 6 5 5 4 4 4 4 4 4 3 4 3 4 4 5 5 5 5 5 5 5 5 5 9 14 15 17 19 18 17 17 16 13 13 13 13 13 14 15 15 15 16 16 17 17 17 18 19 20 20 20 21 21 22 22 23 23
10 10 10 8 7 8 12 11 10 9 10 9 11 12 11 9 9 7 11 10 7 8 8 11 12 9 7 7 6 5 5 4 5 4 4 3 3 3 3 3 4 4 4 4 4 5 4 5 5 5 4 4 6 10 13 16 18 17 17 16 15 13 12 13 14 15 15 15 15 15 16 16 17 17 18 19 19 20 20 21 21 22 23 23 23
9 10 9 9 8 8 8 9 9 8 10 11 10 10 10 8 9 8 5 10 9 10 9 11 8 10 10 8 6 5 4 5 4 4 3 3 2 3 3 3 4 4 4 4 5 4 5 4 4 5 5 5 5 5 7 8 11 17 17 16 15 14 13 13 14 15 15 15 15 15 16 16 17 18 18 19 19 20 20 21 21 22 22 22 23
7 8 8 9 9 8 8 8 9 10 8 7 8 10 11 12 11 11 9 5 7 8 11 5 8 9 8 8 6 5 3 3 3 4 3 2 2 3 3 3 3 3 3 4 4 4 4 4 4 4 4 4 4 4 5 6 7 12 16 16 15 15 14 13 14 14 15 15 15 16 16 17 17 18 18 19 19 19 20 21 21 22 22 23 23
7 7 7 8 9 10 8 9 9 9 9 11 10 8 8 9 8 10 11 11 9 9 5 4 7 11 9 4 6 4 3 6 5 3 2 2 2 3 2 3 3 3 3 4 4 4 4 4 4 4 4 4 3 4 4 4 4 6 11 14 15 15 15 14 14 15 15 16 16 16 16 17 18 18 18 18 19 19 20 21 21 21 22 23 24
6 6 7 9 8 8 10 8 9 8 10 11 12 12 11 13 11 10 12 13 11 9 5 4 8 1 5 7 4 3 4 6 8 4 4 3 2 2 2 2 3 3 3 3 3 3 3 4 4 3 3 3 3 3 4 4 4 6 7 11 13 14 15 14 14 15 15 15 16 16 16 17 17 17 18 18 19 20 20 21 21 22 22 23 23
6 7 6 6 7 9 9 10 10 7 9 10 11 11 13 12 12 11 12 10 12 10 7 5 3 1 3 3 1 1 6 8 8 4 4 1 3 1 2 2 2 3 3 3 3 3 3 3 3 3 2 2 2 3 3 5 5 5 6 8 13 13 13 13 13 14 14 15 16 16 16 16 17 17 18 18 19 19 20 20 21 22 23 23 23
6 7 7 7 7 8 9 9 12 10 10 10 9 12 12 13 11 10 10 9 9 10 11 8 3 2 2 1 2 2 3 11 7 7 5 5 4 3 3 2 2 3 3 3 3 3 3 2 3 2 2 1 2 2 3 4 5 5 9 12 12 12 12 12 12 13 14 15 15 16 16 16 16 17 17 18 18 18 19 20 21 22 23 24 24
6 6 6 8 8 7 8 8 10 11 11 10 12 9 7 5 10 9 9 9 11 9 10 9 11 7 4 3 1 1 5 2 6 6 5 7 6 4 2 2 2 3 3 4 4 4 4 3 2 2 2 1 1 1 2 3 4 5 6 11 11 11 11 11 11 11 12 14 14 15 15 15 16 17 17 18 18 19 19 20 21 22 23 23 24
5 5 6 6 5 6 8 8 10 10 9 10 11 13 15 12 9 7 9 9 9 8 9 10 9 7 7 3 3 4 3 1 2 1 3 6 6 8 6 3 2 3 3 4 3 4 4 3 2 2 2 1 1 2 2 2 3 4 6 10 10 10 10 10 10 10 11 11 12 13 14 15 16 16 17 17 18 18 19 20 21 21 23 24 24
5 5 5 6 6 6 6 7 9 10 9 10 11 12 10 9 10 10 10 9 8 7 9 8 8 6 8 6 6 5 4 3 4 4 1 3 5 9 9 9 7 6 5 5 6 5 4 4 3 2 2 1 1 1 2 3 3 3 5 9 9 9 10 10 9 9 9 10 10 11 13 14 15 15 16 17 17 19 19 20 21 22 23 24 24
5 5 4 5 6 5 5 6 5 8 10 10 8 8 9 9 9 9 9 10 8 8 6 7 7 7 8 7 7 9 7 7 7 7 6 5 4 6 7 9 7 7 7 5 6 6 5 4 4 3 3 2 1 1 1 3 3 3 4 6 8 9 9 9 9 8 9 9 10 11 12 13 13 14 15 16 17 18 19 20 21 22 22 23 24
4 4 4 4 5 5 5 5 6 6 7 7 8 9 9 9 9 8 9 8 6 7 7 7 6 7 7 6 6 6 3 3 4 6 6 4 5 6 7 6 1 5 5 5 5 5 6 5 5 4 3 3 2 1 1 1 4 5 4 4 7 8 9 9 9 9 9 9 10 11 11 12 13 13 14 16 17 18 19 20 20 21 22 22 24
6 6 5 6 5 5 6 6 6 6 7 7 8 9 9 9 9 9 8 9 8 8 7 7 7 7 7 3 2 3 2 1 2 4 2 2 3 5 4 6 6 6 5 5 5 5 5 6 5 5 4 3 2 2 1 0 0 3 4 3 4 7 8 9 9 9 9 9 10 11 11 11 12 13 14 15 16 17 18 19 20 20 21 22 24
9 9 8 8 6 5 6 7 6 7 7 8 8 8 8 8 8 8 8 6 5 6 6 7 5 3 4 4 3 3 2 1 2 3 3 3 4 4 5 3 1 3 3 4 4 4 5 6 5 4 4 4 3 2 2 1 2 3 3 4 4 5 8 9 9 10 10 10 10 11 11 11 12 13 14 15 16 17 17 18 19 20 22 23 24
9 8 10 9 7 6 6 5 5 5 6 6 5 6 7 6 6 6 6 5 6 6 5 7 5 5 5 4 4 3 3 2 2 3 3 3 2 3 5 5 3 3 3 5 4 8 4 5 6 5 5 4 4 3 2 2 2 2 4 4 4 5 7 9 10 10 10 10 11 11 11 11 12 13 14 15 16 16 17 18 18 20 21 22 24
5 7 8 9 9 7 6 6 5 6 6 6 7 7 7 7 6 6 5 3 6 6 6 6 6 6 5 4 5 4 3 3 2 3 2 2 2 3 3 3 3 3 5 5 5 6 7 5 5 6 5 5 4 3 2 2 4 3 5 4 4 4 5 9 11 11 11 11 11 11 11 11 12 13 14 15 15 16 16 17 18 20 21 22 23
6 6 8 8 8 7 7 6 6 6 6 6 7 7 7 7 7 7 7 6 6 7 6 6 6 5 5 5 4 5 4 4 3 3 3 3 2 3 2 2 2 5 3 5 5 4 5 7 4 6 7 5 4 4 4 4 2 1 3 4 4 4 5 9 12 12 12 12 12 11 11 11 12 13 14 15 15 15 16 17 18 19 20 21 22
6 5 6 8 7 9 7 7 6 7 7 7 7 7 8 6 6 7 6 7 7 6 5 6 6 5 6 5 5 5 4 4 4 3 3 3 4 3 3 2 1 3 5 6 4 1 2 5 5 3 5 6 4 4 3 3 4 3 5 5 5 4 6 11 11 12 12 13 12 11 11 12 13 14 14 15 15 15 16 17 19 20 20 21 22
6 6 6 7 8 6 6 7 7 7 7 8 8 7 8 7 7 7 7 7 7 7 6 6 6 6 7 7 5 5 4 5 4 3 3 3 3 3 3 2 2 2 3 5 6 1 2 2 3 2 4 6 5 4 3 4 5 5 5 5 5 4 9 9 11 12 13 12 11 11 11 12 14 15 15 15 14 15 16 18 19 20 20 21 22
5 6 6 8 9 9 7 7 8 8 9 8 8 8 8 7 8 8 7 8 8 8 7 5 4 5 7 7 6 5 5 5 4 4 3 2 2 2 3 2 2 2 2 4 5 6 2 2 1 3 4 4 4 4 5 4 4 9 5 5 5 6 6 5 8 12 12 11 11 11 12 13 15 15 14 14 14 15 16 18 19 20 20 21 21
6 7 7 8 9 8 8 7 9 9 10 9 8 8 8 8 7 8 9 8 9 7 8 7 5 6 6 6 6 6 6 6 5 4 4 3 3 2 2 2 3 3 4 4 5 6 4 3 2 2 3 3 4 5 5 5 5 5 5 5 5 5 5 6 6 10 11 11 11 11 12 13 15 15 14 13 13 14 16 18 19 19 19 20 20
6 8 9 7 8 9 7 7 8 9 10 10 9 9 8 9 8 5 8 9 9 8 8 8 6 5 6 7 6 6 4 4 5 4 4 4 3 3 3 3 3 3 3 4 5 5 7 3 2 2 3 3 4 4 5 5 5 4 6 5 4 5 5 6 6 7 10 11 11 12 13 13 15 15 14 13 13 14 16 18 18 19 19 19 20
7 7 6 6 7 7 7 7 9 9 10 10 9 9 9 9 9 8 7 9 9 9 9 8 8 6 7 6 6 5 4 5 4 4 4 4 3 3 3 3 3 2 3 4 4 5 6 6 4 4 4 3 4 4 4 4 5 5 7 7 6 5 5 7 7 7 10 12 13 13 13 13 14 15 14 13 13 14 17 18 18 18 19 19 19
5 6 6 8 8 7 7 8 9 9 10 9 9 8 9 10 9 10 9 8 8 8 8 8 8 8 8 7 6 6 6 5 4 4 3 3 3 3 3 3 2 3 3 3 5 5 5 6 6 4 3 3 4 3 3 4 6 6 6 7 6 7 7 7 8 8 9 13 14 14 14 14 14 15 14 13 13 15 17 18 18 18 18 18 19
7 7 7 7 7 8 8 10 10 10 10 10 10 9 8 8 10 10 9 7 7 7 8 8 9 8 8 7 8 7 6 5 4 4 4 5 4 3 3 3 3 3 3 3 4 5 5 7 7 5 4 4 5 5 5 6 7 7 7 7 7 8 8 8 8 8 12 16 17 17 15 15 14 14 14 13 13 15 17 18 18 18 18 18 18
8 9 10 8 10 9 9 10 10 10 10 10 10 10 9 8 7 7 7 7 8 8 8 7 7 6 6 7 7 7 6 6 5 4 4 6 4 4 4 4 4 3 4 4 4 5 6 7 7 7 6 5 5 6 5 5 6 7 7 7 8 8 8 8 8 7 7 7 6 6 9 12 14 15 14 13 14 15 17 18 18 18 18 18 18
10 10 10 9 8 9 10 10 10 10 9 8 8 8 9 9 8 9 9 8 8 7 6 7 6 5 5 5 6 6 7 7 8 6 6 5 4 5 5 5 4 4 5 5 5 5 6 6 7 7 7 6 5 7 5 4 5 6 8 9 9 7 8 8 8 7 7 8 11 14 12 9 9 8 12 15 16 16 17 17 16 17 17 17 18
8 9 10 10 8 9 10 10 9 8 9 9 9 9 9 9 8 8 8 8 8 7 7 6 6 6 6 5 5 5 5 5 8 6 6 6 5 6 5 5 5 6 6 5 5 5 5 7 7 7 6 6 6 6 5 4 6 8 8 8 9 8 7 7 8 8 8 8 8 6 7 9 10 13 16 16 15 15 16 15 15 15 16 17 17
7 8 7 6 7 8 8 8 8 7 7 6 6 8 8 8 7 8 8 9 9 9 7 6 5 5 4 3 4 4 5 4 5 4 6 6 5 4 5 6 7 6 5 4 4 4 5 6 7 7 7 7 7 7 6 7 8 9 6 6 8 9 8 9 9 9 9 9 8 6 6 6 7 7 7 8 7 9 11 13 13 16 16 15 17
6 7 8 6 8 9 10 9 7 5 4 4 10 15 13 11 9 7 7 8 9 8 8 7 5 5 4 4 3 4 3 2 4 7 9 8 8 5 5 7 6 6 5 5 5 5 5 6 7 7 6 8 8 8 9 8 8 8 8 8 10 9 8 9 10 8 8 8 7 8 6 5 6 7 7 8 7 7 7 7 7 9 13 18 19
7 8 8 9 9 8 9 8 9 9 8 8 14 13 13 11 9 9 9 8 8 6 6 7 7 6 5 4 3 4 4 5 7 11 12 12 13 13 11 10 8 8 6 6 6 6 6 7 6 5 7 10 10 9 9 9 8 9 8 8 8 8 8 8 10 7 4 6 6 6 7 5 6 8 8 8 8 7 7 7 10 14 17 18 19
6 6 7 8 9 8 7 9 11 9 9 12 15 15 15 16 12 8 7 6 6 7 7 7 5 5 5 4 3 3 4 6 6 6 10 13 14 14 16 16 15 14 13 10 7 6 7 7 7 7 8 9 11 9 9 9 9 8 8 8 9 8 9 9 10 10 3 5 5 7 10 6 4 6 8 8 7 7 8 10 12 15 17 18 19
5 9 7 8 9 10 11 12 11 9 7 12 16 16 16 16 13 9 6 7 7 6 6 7 7 7 6 4 3 3 4 8 6 6 7 8 12 17 17 16 17 18 18 19 17 11 6 6 7 9 11 10 10 11 10 10 8 9 8 9 9 9 10 11 11 9 8 3 3 7 10 8 4 8 9 7 7 8 8 10 13 14 16 18 18
7 8 5 7 8 10 10 9 7 6 6 11 15 15 14 15 14 10 5 6 5 6 7 7 6 7 7 7 5 5 5 6 7 8 8 9 8 9 11 12 12 15 18 21 20 22 17 10 9 11 13 11 12 12 10 8 8 8 8 9 10 10 10 12 12 11 9 1 4 6 10 10 5 6 9 8 8 8 8 10 13 14 16 18 16
9 8 7 8 8 7 5 5 6 4 5 13 15 16 16 16 16 9 4 4 4 4 5 5 6 7 5 5 5 6 5 5 7 9 9 9 8 6 6 7 11 11 11 12 14 13 12 12 13 15 14 12 12 12 10 8 9 9 9 10 10 11 11 11 11 11 9 7 6 5 9 10 6 8 10 9 8 8 8 10 14 15 16 16 14
4 4 4 5 6 6 6 5 6 6 6 15 16 17 17 16 14 5 4 4 4 3 4 5 5 4 4 5 5 6 7 8 9 13 11 8 7 10 12 10 9 9 10 10 11 12 12 12 13 14 12 12 11 9 8 6 6 7 9 11 11 10 8 12 15 9 9 7 7 7 8 10 7 7 11 8 7 9 8 8 11 15 14 14 10
6 6 5 5 5 6 7 7 6 6 4 11 13 14 14 16 11 5 5 4 3 4 3 5 4 5 5 6 6 6 7 8 9 11 12 12 9 11 11 13 11 7 10 6 12 18 19 21 22 22 22 23 25 25 25 26 20 13 7 9 11 9 9 11 12 13 10 6 6 8 6 9 6 6 8 9 8 10 10 9 9 9 10 9 9
7 7 6 5 4 5 6 6 7 8 6 10 15 16 16 16 9 7 5 5 4 4 3 4 4 4 7 10 9 7 8 9 10 12 13 11 10 11 9 13 14 11 10 6 7 10 17 21 24 24 24 23 23 24 26 25 23 19 11 10 8 8 10 10 11 10 11 8 5 6 3 7 5 5 7 8 9 8 7 5 5 4 6 8 11
7 6 6 5 5 3 4 6 7 7 6 9 13 14 15 15 10 5 5 4 4 4 4 3 4 5 5 7 12 11 10 10 13 13 15 13 9 11 8 9 12 15 10 2 7 6 6 6 9 11 12 15 13 12 13 17 19 17 13 13 9 8 9 9 10 8 9 9 7 9 6 5 4 4 4 7 8 7 4 4 3 3 6 6 7
Wind_Direction
169 165 165 167 159 149 152 153 145 138 137 132 127 123 114 115 116 114 109 108 102 95 92 88 89 86 87 86 80 74 67 66 58 53 51 53 48 27 20 19 48 49 53 60 56 56 66 71 72 73 72 68 65 64 64 63 61 57 53 51 50 48 45 42 42 43 40 37 36 36 35 34 32 31 30 28 28 27 26 25 23 21 19 17 16
176 174 174 168 162 149 159 157 150 137 140 137 138 131 125 122 120 117 116 112 102 96 99 95 90 91 89 89 84 82 81 75 65 63 62 58 53 47 28 24 34 60 53 62 61 60 57 59 61 63 66 65 63 63 62 62 60 59 54 50 48 47 46 44 41 42 41 37 36 36 35 34 32 31 30 29 28 27 25 25 23 21 20 18 16
187 181 158 157 165 162 161 161 153 144 141 137 137 134 129 124 126 124 123 115 108 104 107 102 94 88 88 89 90 91 85 78 73 67 65 61 62 57 48 35 31 38 60 59 62 60 58 58 56 59 63 66 64 62 60 61 61 59 56 51 48 45 45 44 41 37 39 38 35 33 34 33 32 30 30 29 28 27 26 23 21 20 19 18 16
187 180 168 160 162 170 166 167 161 148 142 137 132 136 131 122 113 111 118 114 112 110 107 103 97 93 94 90 90 88 81 81 78 70 68 68 67 68 63 58 41 37 39 58 62 57 55 57 60 59 60 63 66 67 64 60 59 60 58 51 48 47 45 44 42 38 37 37 36 34 33 33 31 30 30 28 27 27 24 22 20 18 17 17 14
185 181 168 166 164 163 171 171 159 152 144 138 135 136 132 123 115 115 113 113 108 107 108 105 102 100 93 91 90 84 84 86 83 80 76 74 76 72 74 65 67 51 41 39 48 55 57 58 59 60 62 61 61 63 63 62 56 56 58 55 48 45 44 43 43 40 38 36 36 34 34 33 31 31 29 28 26 25 23 22 19 17 16 15 13
184 183 176 171 167 166 167 160 132 119 131 132 130 139 138 132 130 119 116 117 117 121 124 113 106 102 94 92 88 87 89 85 82 80 80 77 74 68 65 60 57 58 55 44 38 46 55 57 57 57 57 58 58 58 60 60 59 55 56 56 49 43 42 41 41 41 40 37 37 35 33 32 30 30 28 27 25 23 21 19 17 15 13 12 11
178 173 169 173 168 164 169 167 146 130 132 138 130 134 139 137 136 123 123 121 119 123 124 115 110 103 97 96 92 94 93 92 90 87 82 80 72 68 60 58 52 53 57 65 48 40 48 53 55 54 53 53 52 52 52 55 56 56 52 55 52 45 39 40 39 40 38 37 36 33 32 31 29 27 25 23 21 20 17 16 13 12 10 9 8
176 177 171 174 175 167 170 164 147 141 143 142 139 146 141 136 132 130 130 131 130 126 122 113 104 101 99 98 100 105 102 100 95 91 87 86 78 71 67 58 53 49 56 68 68 50 46 50 50 50 50 50 50 49 49 53 53 53 50 49 51 48 41 38 37 38 36 35 33 32 30 28 25 23 21 18 16 15 14 12 11 11 9 8 7
177 181 176 164 150 150 154 157 147 146 146 148 144 140 145 138 134 130 131 137 132 128 122 114 107 103 101 101 101 106 102 99 100 97 90 84 81 80 77 70 62 56 61 61 66 68 47 48 49 45 45 48 51 52 49 47 49 48 49 46 46 47 44 38 35 35 36 34 30 28 26 24 21 19 18 16 15 14 13 12 11 10 8 7 6
160 172 175 160 142 140 129 151 153 146 145 154 150 140 147 144 136 129 133 136 135 137 129 118 110 110 104 100 97 91 92 97 94 98 91 89 83 79 76 75 64 58 58 57 60 60 62 54 57 53 41 44 50 51 50 46 43 46 45 45 44 39 43 39 34 36 34 33 29 26 23 21 18 17 16 15 14 13 12 11 10 10 8 7 5
160 161 149 156 150 147 147 156 154 149 133 145 146 146 149 151 144 129 127 135 137 134 130 121 112 108 103 95 88 85 87 87 96 88 88 85 83 80 77 75 73 66 64 65 64 60 54 54 57 60 50 40 46 48 46 45 43 39 37 38 39 36 37 38 33 33 32 30 27 24 21 18 16 14 14 14 13 12 11 10 10 9 7 6 4
171 166 157 163 163 161 158 154 160 152 147 146 152 157 155 143 144 135 124 113 120 129 131 122 109 105 102 91 85 86 86 90 87 84 88 84 90 95 89 92 86 76 69 72 67 61 61 57 58 63 64 51 44 43 44 40 39 40 34 32 32 34 34 36 33 30 28 26 25 22 19 16 13 12 12 12 11 10 9 9 8 7 5 3 0
169 166 165 158 149 151 163 159 160 159 158 161 157 156 152 147 143 140 136 130 135 148 147 130 124 115 108 105 97 90 86 85 84 78 75 81 87 99 102 100 95 84 76 72 66 61 61 55 55 55 49 48 55 46 45 43 35 35 33 27 26 30 30 32 32 27 24 24 21 19 16 13 11 10 10 10 10 8 7 6 5 4 2 359 357
172 173 153 158 157 154 158 163 163 160 160 159 153 143 140 137 136 128 145 143 149 166 160 138 140 146 143 136 120 108 88 83 78 71 71 74 78 89 101 100 97 98 100 87 76 66 61 58 54 50 46 47 42 44 42 43 37 31 30 24 23 22 25 27 28 26 21 19 18 15 12 11 9 8 8 8 7 5 3 3 2 0 358 355 353
161 169 158 156 161 158 163 167 166 163 147 132 133 144 153 152 160 150 148 157 152 171 174 197 152 151 138 133 152 149 143 115 93 84 82 79 96 98 98 102 96 101 102 98 91 80 63 58 55 49 45 42 44 47 60 57 35 33 29 24 18 19 18 19 22 23 19 15 13 11 10 9 7 6 6 4 3 1 360 360 358 356 354 353 351
165 170 165 161 159 163 164 168 165 155 149 150 155 158 157 162 166 159 149 148 171 185 196 235 167 148 158 187 156 173 163 201 157 116 98 87 103 120 122 119 116 111 110 99 94 86 81 69 61 57 47 42 42 48 49 40 33 46 39 24 17 16 16 15 16 18 16 11 8 7 7 6 6 4 2 0 360 358 357 356 354 352 351 350 349
169 178 163 164 167 157 162 164 161 157 159 159 163 167 167 172 171 163 173 161 167 174 196 223 189 231 143 124 129 214 227 143 143 138 157 145 112 112 108 131 129 115 110 104 103 101 97 83 73 63 48 45 43 47 44 35 38 28 32 24 16 15 14 12 12 12 11 7 5 3 4 4 4 1 359 358 357 355 354 352 349 348 348 347 347
173 179 172 156 163 168 168 160 164 169 171 165 164 161 169 177 185 177 177 180 161 163 174 209 237 165 308 347 8 290 160 150 164 164 159 106 128 120 124 120 123 132 128 132 132 120 103 96 85 79 60 45 49 49 62 49 36 38 23 14 15 14 11 10 9 7 6 3 2 1 1 1 1 358 357 355 354 351 350 347 346 346 345 344 345
174 176 174 163 158 166 170 169 167 175 178 174 167 171 173 180 181 188 180 172 165 166 172 178 179 238 219 313 2 327 139 146 194 126 172 163 181 171 163 149 140 153 155 153 146 144 128 125 114 102 76 64 53 66 72 73 56 47 27 12 13 11 8 8 7 4 2 360 359 359 358 358 358 356 353 350 349 345 345 343 343 343 342 341 343
180 178 165 171 167 164 166 170 171 180 180 179 178 176 168 162 178 185 182 176 178 174 167 169 178 180 165 192 146 112 158 321 170 179 161 164 175 162 151 162 174 182 178 172 170 164 156 149 147 142 113 85 70 79 73 63 56 36 23 9 7 6 4 4 4 3 359 356 356 353 354 355 355 353 349 345 343 342 341 340 341 340 337 339 339
187 181 169 159 162 169 162 169 178 182 188 187 187 178 176 170 181 192 184 183 187 175 165 175 189 172 155 161 156 155 161 22 168 164 164 171 169 176 173 165 221 198 196 186 185 176 174 163 147 154 135 117 105 71 64 66 59 39 22 5 360 359 358 359 359 360 354 352 350 348 349 353 352 349 345 342 339 339 338 337 337 336 336 336 338
183 184 177 149 157 177 168 169 179 182 187 186 179 179 181 182 185 186 184 183 191 179 177 174 184 158 176 156 161 151 164 170 188 180 100 221 186 185 176 174 189 192 183 190 187 184 179 167 164 175 181 146 102 94 76 78 56 34 14 358 351 349 351 350 351 351 347 345 345 344 348 350 347 343 340 339 337 337 336 334 332 333 334 335 337
172 172 182 151 149 166 176 181 178 183 186 182 176 176 178 181 185 186 185 184 184 178 176 170 174 157 173 175 179 177 180 188 185 188 192 175 168 172 170 183 195 168 189 178 183 185 179 178 179 182 184 171 133 113 100 96 99 38 345 351 342 342 346 343 340 341 339 339 340 343 346 345 341 338 337 337 337 335 331 330 330 331 334 335 336
170 158 168 165 148 164 167 181 196 188 194 180 177 182 181 182 185 186 186 187 171 170 180 169 167 162 172 188 189 191 191 194 180 185 193 194 185 170 173 163 183 181 144 164 175 182 185 185 188 183 183 174 162 128 128 159 105 59 332 337 332 337 337 332 331 333 333 336 338 340 341 339 336 335 336 336 333 330 327 327 329 332 335 336 336
183 179 177 174 164 160 171 178 192 203 199 184 181 178 179 180 182 182 179 178 179 176 172 174 170 172 177 175 156 168 176 35 176 176 172 141 185 153 157 173 201 184 166 176 183 182 193 195 182 191 180 179 162 188 126 151 102 52 329 289 308 325 325 322 322 326 330 333 333 334 335 333 334 335 335 331 328 326 325 327 330 334 336 337 336
177 186 172 169 180 175 169 184 194 196 191 189 178 174 175 181 177 180 170 171 162 167 166 152 161 135 136 153 170 169 91 95 131 137 146 167 182 173 148 157 308 192 152 199 181 185 191 196 187 183 185 179 180 184 187 174 211 136 312 298 283 289 311 314 318 322 326 329 327 328 329 330 333 333 328 325 323 323 326 329 333 336 336 336 334
182 176 163 168 159 157 173 176 183 188 188 184 168 169 174 178 173 160 157 158 154 163 151 150 147 147 153 155 141 119 108 103 129 124 135 169 182 158 156 164 196 230 224 200 202 223 199 176 186 192 193 185 190 187 192 213 222 172 302 283 280 268 292 312 316 321 324 323 321 321 326 330 331 326 320 319 319 322 326 331 335 337 337 334 331
184 161 159 158 164 155 164 176 169 181 185 176 167 171 171 170 162 158 148 111 149 152 143 145 141 143 137 119 131 114 108 110 103 106 109 85 111 145 174 205 222 230 207 228 216 229 192 182 176 198 189 191 186 189 153 226 235 173 248 268 283 282 293 312 316 317 318 316 312 317 324 327 322 315 312 312 315 320 326 332 335 335 332 330 329
188 175 154 164 157 152 162 163 163 173 174 171 170 168 164 167 163 153 148 153 151 151 147 147 134 131 124 134 128 126 121 111 106 115 115 127 139 150 168 212 284 284 259 250 225 213 174 201 201 181 187 190 184 187 185 230 170 233 283 273 272 279 300 309 309 309 308 304 307 315 321 317 310 305 305 308 313 321 328 332 332 330 328 327 325
171 162 168 160 148 156 160 164 160 166 170 168 168 162 162 166 152 151 146 148 144 138 139 130 134 131 132 126 126 124 121 128 125 122 138 144 152 164 173 182 215 253 287 283 283 223 158 177 224 159 178 190 190 191 208 235 146 222 257 262 266 275 299 298 297 295 294 296 305 312 311 307 301 298 301 306 314 322 328 329 328 326 324 324 322
156 158 163 162 158 152 150 161 159 164 167 165 164 164 170 157 153 149 147 153 148 141 137 136 135 143 143 136 130 126 131 125 123 126 130 151 158 158 158 173 177 220 254 272 272 286 127 231 183 143 157 178 182 200 213 236 191 215 251 260 263 275 288 282 278 280 284 293 302 305 304 299 294 294 299 306 315 322 326 324 323 322 322 320 318
158 157 173 167 164 163 163 155 160 167 167 163 167 169 169 162 157 152 156 155 144 140 138 134 134 141 138 139 140 139 141 137 138 143 147 140 142 158 168 172 171 198 222 246 262 269 167 223 159 151 160 164 187 215 247 230 182 204 250 262 264 269 269 277 267 270 277 286 295 297 295 291 288 291 298 305 314 320 321 319 318 318 318 316 317
149 159 182 180 166 166 161 159 166 167 167 163 169 167 169 156 156 147 150 154 142 137 135 133 134 138 142 138 138 136 144 148 147 149 143 141 151 160 166 182 191 189 207 230 250 267 259 167 231 233 152 171 242 230 235 243 232 225 228 261 264 270 277 274 274 266 269 277 285 289 286 283 284 289 295 302 311 316 315 313 314 315 314 314 316
157 170 185 181 167 162 159 162 166 166 164 164 166 169 163 155 148 140 150 149 138 132 135 141 143 140 144 142 139 139 147 142 138 142 144 149 160 169 182 199 208 200 209 224 249 260 269 255 247 194 195 194 256 230 230 257 263 262 269 274 270 264 264 273 273 271 267 269 275 279 278 277 281 286 292 298 307 312 310 310 310 310 311 313 313
174 175 168 174 168 160 157 166 170 169 164 162 168 169 163 157 151 152 149 147 143 144 148 148 149 146 145 143 144 145 146 144 142 137 139 150 161 187 194 203 214 213 209 229 248 262 271 277 287 272 261 212 237 259 255 259 271 275 275 272 266 263 257 262 268 270 265 265 270 274 274 274 277 283 287 294 305 308 306 306 307 307 308 309 311
166 178 165 172 170 166 166 171 176 169 165 165 167 171 163 158 149 150 154 152 150 147 145 143 147 155 156 147 153 155 156 148 148 145 153 159 175 194 196 208 214 221 223 222 241 255 273 280 273 263 269 272 266 260 259 264 266 270 267 273 265 258 257 255 258 262 260 260 265 269 269 267 272 278 283 291 302 303 301 302 302 304 305 306 308
172 169 173 174 170 174 179 181 175 171 169 166 168 165 162 159 156 151 153 148 138 138 142 148 156 158 162 165 155 153 155 142 149 161 168 176 188 194 200 199 209 219 213 228 231 239 251 261 273 271 261 263 266 265 265 275 280 273 266 261 261 259 261 259 255 255 257 259 264 265 261 258 260 269 275 285 294 296 296 297 298 300 301 304 307
171 181 177 179 183 178 182 182 176 172 170 170 169 166 162 154 143 133 128 136 143 145 147 149 157 161 157 158 157 151 158 163 164 165 172 185 185 201 205 208 208 211 223 228 229 232 243 257 265 276 267 264 272 264 247 247 273 283 282 271 263 254 250 255 250 245 245 248 249 249 245 243 245 255 265 279 288 290 290 292 294 296 298 301 303
175 178 182 178 185 179 180 179 181 175 167 163 156 151 150 150 143 142 147 146 144 139 142 149 153 154 165 150 150 164 172 167 155 170 172 177 187 206 208 208 211 212 226 226 225 232 242 254 262 261 268 263 257 269 264 239 257 265 276 286 280 260 237 241 256 255 249 249 249 245 244 245 246 253 269 277 280 280 282 286 290 291 295 297 298
172 175 175 177 174 173 178 182 180 167 165 166 162 152 148 150 151 153 148 142 136 135 140 148 157 165 166 158 155 177 185 170 169 163 168 187 192 207 209 200 209 215 225 226 224 230 240 249 254 258 258 265 259 255 251 236 262 259 237 241 264 272 265 256 255 265 260 257 258 252 236 237 246 254 261 268 267 261 267 280 282 285 288 291 294
172 177 175 163 155 170 171 174 169 168 171 166 145 149 149 153 148 145 148 146 148 152 154 153 157 157 146 143 159 185 203 221 216 209 203 198 181 196 204 196 209 215 224 225 227 229 243 249 255 254 256 256 255 256 252 240 237 257 267 244 259 269 273 272 264 250 248 250 255 253 246 236 247 252 267 275 269 253 257 262 273 277 279 287 295
164 165 170 160 173 178 172 168 159 143 158 153 176 174 170 157 154 148 146 155 158 155 152 145 144 153 158 157 176 172 166 211 241 243 237 229 226 220 199 192 199 209 213 214 222 227 236 244 245 248 254 255 254 248 251 246 253 257 255 249 259 269 274 271 273 258 236 236 250 261 254 238 246 258 265 271 271 248 251 252 256 277 287 293 298
159 165 169 171 177 174 165 158 158 175 182 176 175 171 168 156 145 151 157 159 145 132 138 150 158 160 159 169 175 172 185 220 236 240 242 240 236 236 240 228 210 197 197 207 221 217 225 241 245 240 247 258 258 253 251 258 247 246 248 255 263 270 270 278 282 287 200 193 243 266 270 249 235 255 263 270 270 257 249 250 257 272 281 292 298
170 152 170 173 172 163 162 168 182 181 177 177 173 172 167 167 168 154 148 137 142 154 160 169 159 142 153 158 168 148 194 213 223 234 240 243 241 238 235 236 233 226 222 213 209 217 223 231 241 235 242 247 259 255 256 249 247 244 244 248 250 253 262 263 270 275 268 162 250 268 280 278 240 252 266 270 270 255 248 251 259 271 279 291 297
148 176 175 166 167 174 179 181 182 177 173 172 178 171 168 167 159 141 149 148 156 163 164 155 157 166 170 162 161 188 211 218 226 236 240 241 238 239 240 240 240 237 234 233 230 230 232 235 237 248 241 243 255 257 247 249 250 257 257 254 252 250 254 263 265 277 274 190 244 273 283 289 286 268 268 277 279 266 259 255 256 262 274 288 293
169 176 166 173 175 182 180 176 170 165 158 171 175 170 163 159 154 154 156 156 153 148 157 155 153 151 153 160 171 211 208 198 219 226 235 242 244 239 236 236 239 239 235 234 232 233 234 235 235 244 248 233 243 254 258 251 237 244 255 259 262 263 260 262 276 279 280 159 250 292 288 282 274 271 274 282 286 274 263 266 261 262 273 284 286
172 177 167 174 178 175 160 160 153 160 165 171 172 164 162 164 164 154 131 120 125 131 127 128 146 160 167 169 198 221 204 195 211 211 225 234 238 242 243 245 245 245 239 230 225 226 227 226 233 241 251 250 250 258 263 262 254 258 261 266 268 270 275 284 282 270 267 250 242 231 259 280 288 284 279 288 294 280 271 268 262 262 269 276 275
136 136 153 159 160 164 158 152 151 162 167 177 173 170 167 165 151 118 132 141 138 129 140 160 182 169 167 186 199 220 227 228 225 214 220 235 250 253 254 253 252 252 251 244 244 240 234 232 234 242 249 253 255 261 265 264 274 279 279 275 273 268 267 269 270 269 255 250 219 223 253 269 276 281 284 290 289 280 277 271 271 268 263 265 266
150 160 159 152 160 155 156 155 154 158 151 177 170 165 162 156 142 144 140 147 150 154 174 179 186 184 195 195 208 224 234 241 232 227 233 229 245 249 252 257 257 252 257 242 244 251 255 258 261 263 265 266 268 269 270 270 269 264 251 265 262 255 250 258 265 271 264 250 212 223 239 271 276 277 287 289 288 285 281 274 268 256 248 248 264
162 162 149 128 137 153 158 163 167 162 158 173 166 162 161 159 145 143 154 156 157 175 189 191 177 194 214 211 217 228 237 247 238 233 237 234 243 248 243 256 262 259 255 225 230 238 243 250 256 261 267 271 274 277 277 278 279 279 271 252 250 254 251 249 260 266 275 269 218 190 202 253 278 275 286 293 291 269 267 266 265 258 231 242 267
146 141 137 134 137 135 153 153 146 146 147 163 163 159 159 160 151 149 148 156 175 199 193 196 192 214 221 214 220 225 234 241 241 242 240 231 237 244 235 242 248 258 256 222 242 245 240 240 248 255 259 262 266 265 268 269 270 268 264 268 269 240 247 251 257 269 276 264 224 185 223 253 252 278 306 315 302 294 252 263 238 265 280 280 281